TimeAEDT,TemperatureF,Dew PointF,Humidity,Sea Level PressureIn,VisibilityMPH,Wind Direction,Wind SpeedMPH,Gust SpeedMPH,PrecipitationIn,Events,Conditions,WindDirDegrees,DateUTC
12:00 AM,72,60,58,29.93,12,NE,4.6,,,,Partly Cloudy,50,2013-11-02 13:00:00
12:00 AM,71.6,60.8,69,29.92,-9999.0,NE,4.6,-,N/A,,Clear,50,2013-11-02 13:00:00
12:30 AM,69.8,59.0,68,29.92,-9999.0,North,3.5,-,N/A,,Clear,350,2013-11-02 13:30:00
1:00 AM,70,62,70,29.92,,SW,3.5,,,,,230,2013-11-02 14:00:00
1:00 AM,69.8,62.6,78,29.92,-9999.0,SW,3.5,-,N/A,,Clear,230,2013-11-02 14:00:00
1:30 AM,71.6,55.4,57,29.89,-9999.0,North,4.6,-,N/A,,Clear,360,2013-11-02 14:30:00
2:00 AM,69,58,58,29.89,,NW,3.5,,,,,310,2013-11-02 15:00:00
2:00 AM,69.8,57.2,64,29.89,-9999.0,NW,3.5,-,N/A,,Clear,310,2013-11-02 15:00:00
2:30 AM,69.8,57.2,64,29.86,-9999.0,WNW,5.8,-,N/A,,Clear,300,2013-11-02 15:30:00
3:00 AM,69,56,54,29.88,16,NNW,5.8,,,,Haze,330,2013-11-02 16:00:00
3:00 AM,69.8,55.4,60,29.86,-9999.0,NNW,5.8,-,N/A,,Clear,330,2013-11-02 16:00:00
3:30 AM,68.0,55.4,64,29.86,-9999.0,North,8.1,-,N/A,,Clear,350,2013-11-02 16:30:00
4:00 AM,67,56,58,29.86,,NNW,8.1,,,,,340,2013-11-02 17:00:00
4:00 AM,68.0,55.4,64,29.86,-9999.0,NNW,8.1,-,N/A,,Clear,340,2013-11-02 17:00:00
4:30 AM,68.0,55.4,64,29.83,-9999.0,North,8.1,-,N/A,,Clear,350,2013-11-02 17:30:00
5:00 AM,67,56,61,29.85,,North,6.9,,,,,350,2013-11-02 18:00:00
5:00 AM,68.0,57.2,68,29.83,-9999.0,North,6.9,-,N/A,,Clear,350,2013-11-02 18:00:00
5:30 AM,66.2,57.2,73,29.83,-9999.0,North,5.8,-,N/A,,Clear,350,2013-11-02 18:30:00
6:00 AM,66,56,63,29.84,16,NNW,8.1,,,,Partly Cloudy,340,2013-11-02 19:00:00
6:00 AM,66.2,57.2,73,29.83,-9999.0,NNW,8.1,-,N/A,,Clear,340,2013-11-02 19:00:00
6:30 AM,68.0,55.4,64,29.83,-9999.0,WNW,8.1,-,N/A,,Clear,300,2013-11-02 19:30:00
7:00 AM,68,55,54,29.84,,NW,8.1,,,,,310,2013-11-02 20:00:00
7:00 AM,68.0,55.4,64,29.83,-9999.0,NW,8.1,-,N/A,,Clear,310,2013-11-02 20:00:00
7:30 AM,68.0,53.6,60,29.83,5.6,NW,6.9,-,N/A,,Unknown,320,2013-11-02 20:30:00
8:00 AM,68,52,47,29.85,,WNW,6.9,,,,,300,2013-11-02 21:00:00
8:00 AM,68.0,51.8,56,29.83,3.7,WNW,6.9,-,N/A,,Unknown,300,2013-11-02 21:00:00
8:30 AM,75.2,50.0,41,29.83,3.1,NNW,6.9,-,N/A,,Smoke,330,2013-11-02 21:30:00
9:00 AM,78,46,22,29.83,2,WNW,6.9,,,,Smoke,300,2013-11-02 22:00:00
9:00 AM,78.8,46.4,32,29.83,2.2,WNW,6.9,-,N/A,,Smoke,300,2013-11-02 22:00:00
9:30 AM,84.2,39.2,20,29.83,3.1,WNW,12.7,-,N/A,,Smoke,300,2013-11-02 22:30:00
10:00 AM,83,40,13,29.83,,West,11.5,,,,,270,2013-11-02 23:00:00
10:00 AM,82.4,41.0,23,29.83,3.1,West,11.5,-,N/A,,Smoke,270,2013-11-02 23:00:00
10:30 AM,82.4,44.6,26,29.80,3.7,WNW,9.2,-,N/A,,Unknown,300,2013-11-02 23:30:00
11:00 AM,87,41,11,29.81,,WNW,8.1,,,,,300,2013-11-03 00:00:00
11:00 AM,86.0,41.0,20,29.80,5.6,WNW,8.1,-,N/A,,Unknown,300,2013-11-03 00:00:00
11:30 AM,87.8,35.6,16,29.77,-9999.0,NW,13.8,-,N/A,,Clear,310,2013-11-03 00:30:00
11:42 AM,89.6,28.4,11,29.77,-9999.0,NW,17.3,31.1,N/A,,Clear,310,2013-11-03 00:42:00
12:00 PM,91,30,5,29.77,19,NW,21.9,,,,Partly Cloudy,310,2013-11-03 01:00:00
12:00 PM,91.4,30.2,11,29.77,-9999.0,NW,21.9,33.4,N/A,,Clear,310,2013-11-03 01:00:00
12:30 PM,93.2,28.4,10,29.74,-9999.0,NW,23.0,-,N/A,,Clear,310,2013-11-03 01:30:00
1:00 PM,94,30,5,29.73,,West,24.2,,,,,270,2013-11-03 02:00:00
1:00 PM,95.0,30.2,10,29.71,-9999.0,West,24.2,36.8,N/A,,Clear,270,2013-11-03 02:00:00
1:30 PM,91.4,32.0,12,29.71,-9999.0,West,27.6,40.3,N/A,,Clear,260,2013-11-03 02:30:00
2:00 PM,92,33,6,29.73,,West,29.9,,,,,270,2013-11-03 03:00:00
2:00 PM,91.4,33.8,13,29.71,-9999.0,West,29.9,-,N/A,,Clear,270,2013-11-03 03:00:00
2:18 PM,91.4,33.8,13,29.71,-9999.0,West,27.6,39.1,N/A,,Clear,280,2013-11-03 03:18:00
2:30 PM,91.4,33.8,13,29.71,-9999.0,West,25.3,36.8,N/A,,Clear,280,2013-11-03 03:30:00
2:38 PM,91.4,26.6,10,29.71,-9999.0,WSW,31.1,-,N/A,,Clear,250,2013-11-03 03:38:00
3:00 PM,92,27,4,29.72,22,WSW,26.5,,,,Partly Cloudy,250,2013-11-03 04:00:00
3:00 PM,93.2,24.8,9,29.71,-9999.0,WSW,26.5,-,N/A,,Clear,250,2013-11-03 04:00:00
3:18 PM,91.4,28.4,10,29.71,-9999.0,WSW,23.0,34.5,N/A,,Clear,240,2013-11-03 04:18:00
3:19 PM,78.8,57.2,47,29.71,6.2,South,19.6,33.4,N/A,,Partly Cloudy,190,2013-11-03 04:19:00
3:34 PM,71.6,62.6,73,29.74,6.2,South,32.2,43.7,N/A,,Partly Cloudy,170,2013-11-03 04:34:00
4:00 PM,69,62,73,29.79,,South,35.7,,,,,180,2013-11-03 05:00:00
4:00 PM,68.0,62.6,83,29.77,5.6,South,35.7,-,N/A,,Scattered Clouds,180,2013-11-03 05:00:00
4:10 PM,68.0,62.6,83,29.77,5.6,South,35.7,47.2,N/A,,Scattered Clouds,170,2013-11-03 05:10:00
4:30 PM,68.0,60.8,78,29.80,5.6,South,35.7,47.2,N/A,,Scattered Clouds,170,2013-11-03 05:30:00
5:00 PM,68,59,65,29.84,,South,34.5,,,,,170,2013-11-03 06:00:00
5:00 PM,68.0,59.0,73,29.83,5.6,South,34.5,-,N/A,,Partly Cloudy,170,2013-11-03 06:00:00
5:30 PM,66.2,55.4,68,29.86,5.6,SSE,34.5,46.0,N/A,,Scattered Clouds,160,2013-11-03 06:30:00
6:00 PM,67,53,52,29.90,7,SSE,31.1,,,,Partly Cloudy,160,2013-11-03 07:00:00
6:00 PM,66.2,53.6,64,29.89,6.2,SSE,31.1,-,N/A,,Scattered Clouds,160,2013-11-03 07:00:00
6:23 PM,64.4,51.8,64,29.92,6.2,SSE,28.8,44.9,N/A,,Mostly Cloudy,160,2013-11-03 07:23:00
6:30 PM,64.4,51.8,64,29.92,6.2,SSE,28.8,44.9,N/A,,Mostly Cloudy,160,2013-11-03 07:30:00
7:00 PM,65,50,47,29.96,,SSE,28.8,,,,,160,2013-11-03 08:00:00
7:00 PM,64.4,50.0,59,29.95,6.2,SSE,28.8,-,N/A,,Mostly Cloudy,160,2013-11-03 08:00:00
7:30 PM,64.4,50.0,59,29.95,6.2,SSE,28.8,-,N/A,,Mostly Cloudy,160,2013-11-03 08:30:00
8:00 PM,64,51,52,30.00,,SSE,26.5,,,,,160,2013-11-03 09:00:00
8:00 PM,64.4,50.0,59,29.98,6.2,SSE,26.5,-,N/A,,Scattered Clouds,160,2013-11-03 09:00:00
8:30 PM,64.4,50.0,59,30.01,6.2,SSE,24.2,-,N/A,,Scattered Clouds,160,2013-11-03 09:30:00
9:00 PM,64,49,47,30.04,12,SSE,24.2,,,,Partly Cloudy,160,2013-11-03 10:00:00
9:00 PM,64.4,48.2,56,30.04,6.2,SSE,24.2,-,N/A,,Mostly Cloudy,160,2013-11-03 10:00:00
9:30 PM,64.4,46.4,52,30.06,6.2,SSE,23.0,-,N/A,,Mostly Cloudy,160,2013-11-03 10:30:00
10:00 PM,64,48,45,30.08,,SSE,23.0,,,,,160,2013-11-03 11:00:00
10:00 PM,64.4,48.2,56,30.06,6.2,SSE,23.0,-,N/A,,Mostly Cloudy,160,2013-11-03 11:00:00
10:30 PM,64.4,48.2,56,30.09,6.2,South,21.9,-,N/A,,Mostly Cloudy,170,2013-11-03 11:30:00
11:00 PM,64,48,45,30.10,,South,21.9,,,,,170,2013-11-03 12:00:00
11:00 PM,64.4,48.2,56,30.09,6.2,South,21.9,-,N/A,,Mostly Cloudy,170,2013-11-03 12:00:00
11:30 PM,62.6,46.4,55,30.09,6.2,South,23.0,-,N/A,,Scattered Clouds,170,2013-11-03 12:30:00